User: anonymous   Login
Location: Champs
(48.8539°N, 2.6040°E)
Time: 23:53:23
(UTC+00:00)
Language:

FENGYUN 1C DEB - Orbit

View from above orbital plane
View from above orbital plane
View from above satellite
View from above satellite

Ground track
Ground track

The orbit data is extracted from the following two-line orbital elements,

1 36153U 99025DSA 22225.16485212  .00001789  00000-0  71551-3 0  9992
2 36153  98.6608 296.2408 0046079  71.2559 318.8322 14.29054451474718
Epoch (UTC): 13 August 2022 03:57:23
Eccentricity: 0.0046079
inclination: 98.6608°
perigee height: 762 km
apogee height: 828 km
right ascension of ascending node: 296.2408°
argument of perigee: 71.2559°
revolutions per day: 14.29054451
mean anomaly at epoch: 318.8322°
orbit number at epoch: 47471

The dashed part of the orbit path shows where the satellite is in the earth's shadow,  

DLR